www.pogodaiklimat.ru

Погода и климат >> Архив погоды >> Австралия >> Западная Австралия >> Леинстер


ПОГОДА в Леинстере

  • Прогноз погоды в Леинстере
  • Монитор погоды в Леинстере

АРХИВ ПОГОДЫ в Леинстере

Время (UTC), дата Ветер
(напр.,м/с)
 
Видим.   Явления Облачность Т
(С)
Тd
(С)
f
(%)
Тe
(С)
Тes
(С)
Комфортность P
(гПа)
Po
(гПа)
Тmin
(С)
Tmax
(С)
R
(мм)
R24
(мм)
S
(см)
07 12.08 С 3 н/о н/о +21.6 -0.4 23 +21 +21 комфорт 1020.4 962.3
09 12.08 С 2 н/о н/о +21.0 -1.5 22 +21 +21 комфорт 1020.7 962.6
10 12.08 СВ 2 н/о н/о +18.5 -1.3 26 +19 +19 1021.0 962.9
12 12.08 СВ 3 н/о н/о +15.3 -1.3 32 +15 +15 1021.7 963.6
13 12.08 СВ 4 н/о н/о +14.0 -2.0 33 +13 +13 1021.7 963.6 +22.5
15 12.08 СВ 4 н/о н/о +12.0 -1.9 38 +11 +11 1020.9 962.8
16 12.08 СВ 4 н/о н/о +11.6 -2.2 38 +10 +10 1020.4 962.3
18 12.08 СВ 3 н/о н/о +9.7 -1.9 44 +8 +8 1019.3 961.3
19 12.08 СВ 3 н/о н/о +10.2 -2.1 42 +9 +9 1018.9 960.9
21 12.08 С 4 н/о н/о +11.6 -2.2 38 +10 +10 1019.0 961.0
22 12.08 С 4 н/о н/о +10.8 -2.6 39 +9 +9 1019.3 961.3
00 13.08 С 7 н/о н/о +14.6 -1.9 32 +13 +13 1020.2 962.1
01 13.08 С 7 н/о н/о +18.8 -1.6 25 +18 +18 1020.0 962.0 +8.7
03 13.08 С 8 н/о н/о +22.8 -4.3 16 +21 +21 комфорт 1018.8 960.8
04 13.08 С 6 н/о н/о +25.5 -3.9 14 +23 +23 комфорт 1017.4 959.5
09 13.08 З 5 н/о н/о +25.4 -2.2 16 +23 +23 комфорт 1015.1 957.3
10 13.08 СЗ 3 н/о 10/0
[]
+24.2 -2.4 17 +23 +23 комфорт 1015.4 957.6
12 13.08 З 3 н/о н/о +21.6 -1.0 22 +21 +21 комфорт 1016.2 958.4
13 13.08 СЗ 3 н/о 9/0
[]
+20.7 -0.6 24 +21 +21 комфорт 1016.4 958.6 +28.0
15 13.08 З 2 н/о н/о +18.2 -1.1 27 +19 +19 1015.8 958.0
16 13.08 З 2 н/о 10/0
[]
+18.8 -0.6 27 +19 +19 1015.6 957.8
18 13.08 Ю 2 н/о н/о +17.0 -0.2 31 +18 +18 1015.1 957.3
19 13.08 ЮВ 2 н/о 9/0
[]
+16.4 +0.1 33 +17 +17 1014.7 957.0
21 13.08 В 2 н/о н/о +15.9 +2.3 40 +16 +16 1014.1 956.4
22 13.08 В 3 н/о 9/0
[]
+15.5 +2.7 42 +15 +15 1014.3 956.6
00 14.08 ЮВ 3 н/о н/о +16.5 +5.8 49 +16 +16 1015.1 957.3
01 14.08 ЮВ 2 н/о 10/0
[]
+17.0 +5.6 47 +17 +20 1015.3 957.5 +14.6
03 14.08 СВ 2 н/о н/о +18.1 +6.6 47 +19 +19 1014.6 956.9
04 14.08 С 3 н/о 10/0 2000 м
[]
+19.4 +4.7 38 +20 +26 1013.7 956.0
06 14.08 С 7 н/о н/о +19.1 +8.4 50 +19 +19 1012.9 955.3
07 14.08 СЗ 7 н/о 10/0
[]
+19.1 +11.2 60 +19 +20 1012.7 955.1
09 14.08 С 8 н/о н/о +18.1 +12.1 68 +17 +17 1012.7 955.1
10 14.08 С 6 н/о н/о +16.5 +12.5 77 +15 +15 1012.8 955.2
12 14.08 СЗ 3 н/о н/о +13.4 +13.1 98 +12 +12 1015.6 957.8
13 14.08 З 4 н/о {туман} 5/5 600 м
[]
+13.6 +13.3 98 +12 +12 1016.3 958.5 +21.7
15 14.08 ЮЗ 3 н/о н/о +12.6 +10.0 84 +11 +11 1016.7 958.8
16 14.08 ЮЗ 3 н/о н/о +11.4 +9.8 90 +10 +10 1016.8 958.9
18 14.08 СЗ 3 н/о н/о +9.6 +9.3 98 +7 +7 1017.0 959.1
19 14.08 З 3 н/о в посл. час дождь {туман} н/о +9.8 +9.5 98 +7 +7 1016.9 959.0
21 14.08 ЮЗ 4 н/о н/о +8.9 +8.6 98 +6 +6 1017.2 959.3
22 14.08 ЮЗ 4 н/о 1/1 300 м
[]
+8.4 +8.1 98 +5 +5 1018.1 960.2
00 15.08 Ю 6 н/о н/о +9.6 +8.0 90 +6 +6 1019.5 961.5
01 15.08 Ю 6 н/о 6/6 300 м
[]
+9.3 +7.6 89 +6 +7 1020.5 962.4 +8.1
03 15.08 Ю 7 н/о н/о +10.8 +6.9 77 +7 +7 1020.4 962.3
04 15.08 Ю 7 н/о 4/4 600 м
[]
+12.7 +7.4 70 +10 +13 1019.6 961.6
06 15.08 Ю 6 н/о н/о +14.4 +5.5 55 +13 +13 1018.7 960.7
07 15.08 Ю 5 н/о 3/3 1000 м
[]
+15.0 +5.0 51 +14 +16 1018.6 960.6
09 15.08 ЮВ 5 н/о н/о +15.0 +4.7 50 +14 +14 1019.2 961.2
10 15.08 Ю 5 н/о 4/4 1000 м
[]
+14.0 +4.9 54 +13 +13 1019.9 961.9
12 15.08 ЮВ 3 н/о н/о +11.8 +5.7 66 +10 +10 1021.0 962.9
13 15.08 ЮВ 2 н/о н/о +10.4 +6.2 75 +9 +9 1021.3 963.2 +15.9
15 15.08 штиль 0 н/о н/о +7.2 +6.3 94 +6 +6 1021.5 963.4
16 15.08 ЮВ 2 н/о н/о +7.4 +6.8 96 +6 +6 1021.6 963.5
18 15.08 штиль 0 н/о н/о +7.3 +6.7 96 +6 +6 1021.4 963.3
19 15.08 штиль 0 н/о н/о +5.9 +5.5 97 +5 +5 1020.8 962.7
21 15.08 В 1 н/о н/о +5.1 +4.8 98 +4 +4 1020.4 962.3
22 15.08 штиль 0 н/о н/о +3.7 +3.4 98 +2 +2 1020.9 962.8
00 16.08 С 3 н/о н/о +6.9 +6.8 99 +4 +4 1022.4 964.2
01 16.08 С 4 5000 м 10/10 50 м
[]
+7.8 +7.5 98 +4 +4 1022.4 964.2 +3.6
03 16.08 В 3 н/о н/о +12.5 +7.4 71 +11 +11 1021.7 963.6
04 16.08 В 3 н/о н/о +14.7 +6.3 57 +14 +14 1020.9 962.8
06 16.08 ЮЗ 3 н/о н/о +17.3 +3.6 40 +17 +17 1018.8 960.8
07 16.08 З 2 н/о н/о +17.9 +2.6 36 +18 +18 1017.9 960.0
09 16.08 З 4 н/о н/о +18.0 +1.1 32 +18 +18 1017.9 960.0
10 16.08 С 2 н/о н/о +15.7 +1.4 38 +16 +16 1017.8 959.9
12 16.08 С 3 н/о н/о +14.6 +3.1 46 +14 +14 1017.9 960.0
13 16.08 С 3 н/о н/о +12.7 +2.8 51 +12 +12 1017.8 959.9 +18.9
15 16.08 СЗ 3 н/о н/о +11.5 +2.0 52 +10 +10 1017.5 959.6
16 16.08 СЗ 3 н/о н/о +10.9 +0.3 48 +9 +9 1017.1 959.2
18 16.08 З 4 н/о н/о +7.9 -0.6 55 +5 +5 1017.2 959.3
19 16.08 З 3 н/о н/о +7.1 -0.6 58 +5 +5 1017.3 959.4
21 16.08 ЮЗ 8 н/о н/о +10.6 +3.6 62 +7 +7 1018.1 960.2
22 16.08 ЮЗ 5 н/о 9/9 600 м
[]
+8.9 +5.6 80 +5 +5 1019.2 961.2
00 17.08 ЮЗ 8 н/о н/о +9.7 +4.3 69 +6 +6 1020.8 962.7
01 17.08 Ю 7 н/о н/о +10.9 +3.2 59 +8 +8 1021.2 963.1 +6.6
03 17.08 ЮЗ 7 н/о н/о +13.6 -0.1 39 +12 +12 1021.7 963.6
04 17.08 ЮЗ 7 н/о н/о +14.5 -1.6 33 +13 +13 1021.3 963.2
06 17.08 ЮЗ 8 н/о н/о +16.1 -2.4 28 +15 +15 1020.7 962.6
07 17.08 ЮЗ 8 н/о н/о +15.6 -3.3 27 +14 +14 1021.3 963.2
09 17.08 ЮЗ 6 н/о н/о +14.9 -4.4 26 +13 +13 1022.5 964.3
10 17.08 Ю 5 н/о н/о +13.5 -4.6 28 +12 +12 1023.2 965.0
12 17.08 ЮЗ 5 н/о н/о +11.5 -4.2 33 +10 +10 1025.2 966.9
13 17.08 ЮЗ 4 н/о н/о +10.7 -3.4 37 +9 +9 1025.9 967.5 +16.9
15 17.08 Ю 3 н/о н/о +8.3 -2.6 46 +6 +6 1026.3 967.9
16 17.08 Ю 3 н/о н/о +7.2 -2.5 50 +5 +5 1026.6 968.2
18 17.08 Ю 3 н/о н/о +6.1 -1.3 59 +3 +3 1026.7 968.3
19 17.08 Ю 5 н/о н/о +6.1 -0.8 61 +2 +2 1026.8 968.4
21 17.08 Ю 2 н/о н/о +3.4 -1.2 72 +1 +1 1027.5 969.0
22 17.08 штиль 0 н/о н/о +1.6 -1.8 78 +1 +1 1028.0 969.5
00 18.08 Ю 4 н/о н/о +7.5 +1.1 64 +4 +4 1030.1 971.5
01 18.08 ЮВ 8 н/о н/о +9.8 +0.7 53 +6 +6 1030.5 971.9 +0.9
03 18.08 ЮВ 6 н/о н/о +12.4 -0.5 41 +10 +10 1030.4 971.8
04 18.08 ЮВ 6 н/о н/о +13.4 -0.6 38 +12 +12 1029.5 970.9
06 18.08 ЮВ 5 н/о н/о +15.5 -0.7 33 +14 +14 1027.7 969.2
07 18.08 В 5 н/о н/о +16.3 -1.3 30 +16 +16 1027.4 968.9
09 18.08 ЮВ 5 н/о н/о +15.6 -2.3 29 +15 +15 1027.7 969.2
10 18.08 ЮВ 5 н/о н/о +14.4 -2.9 30 +13 +13 1028.1 969.6
12 18.08 ЮВ 3 н/о н/о +10.8 -3.3 37 +9 +9 1029.8 971.2
13 18.08 ЮВ 4 н/о н/о +10.2 -3.8 37 +8 +8 1030.0 971.4 +16.8
15 18.08 В 3 н/о н/о +8.9 -3.0 43 +7 +7 1030.5 971.9
16 18.08 ЮВ 4 н/о н/о +8.3 -2.6 46 +6 +6 1030.5 971.9
18 18.08 ЮВ 4 н/о н/о +6.7 -2.2 53 +4 +4 1030.4 971.8
19 18.08 ЮВ 3 н/о н/о +5.5 -2.3 57 +3 +3 1030.5 971.9
21 18.08 В 3 н/о н/о +4.2 -2.6 61 +1 +1 1031.1 972.4
22 18.08 В 3 н/о н/о +3.5 -2.9 63 0 0 1032.2 973.5
00 19.08 В 5 н/о н/о +8.3 -1.5 50 +5 +5 1033.8 975.0
01 19.08 В 6 н/о н/о +10.9 -0.9 44 +8 +8 1033.9 975.1 +2.9
03 19.08 В 7 н/о н/о +14.3 -0.9 35 +13 +13 1033.9 975.1
06 19.08 В 5 н/о н/о +17.1 -3.1 25 +16 +16 1031.0 972.3
07 19.08 В 5 н/о н/о +17.2 -3.0 25 +17 +17 1030.5 971.9

 

Местоположение метеостанции Леинстер (Западная Австралия, Австралия): широта -27.85 долгота 120.70 высота над уровнем моря 498 м.

В архиве по умолчанию представлена погода в Леинстере за последнюю неделю. Архивные данные за месяц целиком и за предыдущие месяцы, начиная с января 2011 года, Вы можете получить, выбрав интересующий диапазон дат из раскрывающегося списка и нажав кнопку "Ввод!".


*Определитесь, кто Вы:
робот инопланетянин человек

Внимание! Время в таблицах - всемирное. Для получения местного времени необходимо прибавить поправку, которая равна 8 ч.

Смотрите также архив погоды в соседних городах и на ближайших метеорологических станциях:

Погода в Леонора аэропорту (Западная Австралия, Австралия) (130 км)
Погода в Лавертоне (Западная Австралия, Австралия) (188 км)
Погода в Микатарре (Западная Австралия, Австралия) (253 км)
Погода в Маунт Магнет аэропорту (Западная Австралия, Австралия) (283 км)
Погода в Калгурли-Боулдере (Западная Австралия, Австралия) (334 км)
Погода в Саутерн Кросс (Западная Австралия, Австралия) (398 км)
Погода в Дауоллину (Западная Австралия, Австралия) (476 км)
Погода в Мораве (Западная Австралия, Австралия) (481 км)
Погода в Норсмане (Западная Австралия, Австралия) (496 км)
Погода в Ньюмане (Западная Австралия, Австралия) (502 км)

Пояснения к столбцам:

Ветер - указаны скорость ветра в м/с - средняя за 10 мин, порывы в срок и между сроками (в фигурных скобках) и направление, откуда дует ветер: С - северный, СВ - северо-восточный, В - восточный, ЮВ - юго-восточный, Ю - южный, ЮЗ - юго-западный, З - западный, СЗ - северо-западный.
Видимость - горизонтальная дальность видимости в метрах или километрах. При видимости от 1 до 10 км при отсутствии осадков обычно наблюдается дымка, при ухудшении видимости до 1 км и менее - туман. В сухую погоду видимость может ухудшаться дымом, пылью или мглою.
Явления - указаны атмосферные явления, наблюдавшиеся в срок или в последний час перед сроком; фигурными скобками обозначены явления, наблюдавшиеся между сроками (за 1-3 часа до срока); квадратными скобками обозначены град или гололедные отложения с указанием их диаметра в мм.
Облачность - указаны через наклонную черту общая и нижняя облачность в баллах и высота нижней границы облаков в метрах; квадратными скобками обозначены формы облаков: Ci - перистые, Cs - перисто-слоистые, Cc - перисто-кучевые, Ac - высококучевые, As - высокослоистые, Sc - слоисто-кучевые, Ns - слоисто-дождевые, Cu - кучевые, Cb - кучево-дождевые. Подробнее классификацию облаков см. в Атласе облаков (PDF).
T - Температура воздуха - температура, измеренная на высоте 2 м над землей.
Td - Температура точки росы - температура, при понижении до которой содержащийся в воздухе водяной пар достигнет насыщения.
f - Относительная влажность воздуха - влажноcть воздуха, измеренная на высоте 2 м над землей.
Te - Эффективная температура - температура, которую ощущает одетый по сезону человек в тени. Характеристика душности погоды. При расчете учитывается влияние влажности воздуха и скорости ветра на теплоощущения человека.
Tes - Эффективная температура на солнце - температура, которую ощущает человек, с поправкой на солнечный нагрев. Характеристика знойности погоды. Зависит от высоты солнца над горизонтом, облачности и скорости ветра. Ночью, в пасмурную погоду, а также при ветре 12 м/с и более поправка равна нулю.
P - Атмосферное давление - приведенное к уровню моря атмосферное давление.
Po - Атмосферное давление - измеренное на уровне метеостанции атмосферное давление.
Tmin - Минимальная температура - минимум температуры воздуха на высоте 2 м над землей.
Tmax - Максимальная температура - максимум температуры воздуха на высоте 2 м над землей.
R - Количество осадков - Количество выпавших осадков за период времени, мм. При наведении курсора мыши на число - период времени, за который выпало указанное количество осадков.
R24 - Количество осадков - Количество выпавших осадков за 24 часа, мм.
S - Снежный покров - Высота снежного покрова, см. При наведении курсора мыши на число - состояние снежного покрова и степень покрытия местности в баллах.